Time,TemperatureF,DewpointF,PressureIn,WindDirection,WindDirectionDegrees,WindSpeedMPH,WindSpeedGustMPH,Humidity,HourlyPrecipIn,Conditions,Clouds,dailyrainin,SolarRadiationWatts/m^2,SoftwareType,DateUTC
2013-08-14 00:00:00,54.5,50.4,30.11,NNE,13,0.0,0.0,86,0.00,,---,0.00,0.00,VWS V14.01,2013-08-14 05:00:00,
2013-08-14 00:01:00,54.5,50.4,30.11,NNE,13,0.0,0.0,86,0.00,,---,0.00,0.00,VWS V14.01,2013-08-14 05:01:00,
2013-08-14 00:05:00,54.5,50.4,30.12,NNE,13,0.0,0.0,86,0.00,,---,0.00,0.00,VWS V14.01,2013-08-14 05:05:00,
2013-08-14 00:10:00,54.6,50.8,30.11,NNE,13,0.0,0.0,87,0.00,,---,0.00,0.00,VWS V14.01,2013-08-14 05:10:00,
2013-08-14 00:11:00,54.6,50.8,30.11,NNE,13,0.0,0.0,87,0.00,,---,0.00,0.00,VWS V14.01,2013-08-14 05:11:00,
2013-08-14 00:15:00,54.7,50.9,30.11,NNE,13,0.0,0.0,87,0.00,,---,0.00,0.00,VWS V14.01,2013-08-14 05:15:00,
2013-08-14 00:16:00,54.7,50.9,30.11,NNE,13,0.0,0.0,87,0.00,,---,0.00,0.00,VWS V14.01,2013-08-14 05:16:00,
2013-08-14 00:20:00,54.7,50.9,30.11,NNE,13,0.0,0.0,87,0.00,,---,0.00,0.00,VWS V14.01,2013-08-14 05:20:00,
2013-08-14 00:21:00,54.7,50.9,30.11,NNE,13,0.0,0.0,87,0.00,,---,0.00,0.00,VWS V14.01,2013-08-14 05:21:00,
2013-08-14 00:25:00,54.6,50.8,30.11,NNE,13,0.0,0.0,87,0.00,,---,0.00,0.00,VWS V14.01,2013-08-14 05:25:00,
2013-08-14 00:26:00,54.6,50.8,30.11,NNE,13,0.0,0.0,87,0.00,,---,0.00,0.00,VWS V14.01,2013-08-14 05:26:00,
2013-08-14 00:30:00,54.5,50.7,30.11,NNE,13,0.0,0.0,87,0.00,,---,0.00,0.00,VWS V14.01,2013-08-14 05:30:00,
2013-08-14 00:31:00,54.5,50.7,30.11,NNE,13,0.0,0.0,87,0.00,,---,0.00,0.00,VWS V14.01,2013-08-14 05:31:00,
2013-08-14 00:35:00,54.6,51.1,30.11,NNE,13,0.0,0.0,88,0.00,,---,0.00,0.00,VWS V14.01,2013-08-14 05:35:00,
2013-08-14 00:36:00,54.6,51.1,30.11,NNE,13,0.0,0.0,88,0.00,,---,0.00,0.00,VWS V14.01,2013-08-14 05:36:00,
2013-08-14 00:40:00,54.6,51.1,30.11,NNE,13,0.0,0.0,88,0.00,,---,0.00,0.00,VWS V14.01,2013-08-14 05:40:00,
2013-08-14 00:41:00,54.6,51.1,30.11,NNE,13,0.0,0.0,88,0.00,,---,0.00,0.00,VWS V14.01,2013-08-14 05:41:00,
2013-08-14 00:45:00,54.6,51.4,30.11,NNE,13,0.0,0.0,89,0.00,,---,0.00,0.00,VWS V14.01,2013-08-14 05:45:00,
2013-08-14 00:46:00,54.6,51.4,30.11,NNE,13,0.0,0.0,89,0.00,,---,0.00,0.00,VWS V14.01,2013-08-14 05:46:00,
2013-08-14 00:50:00,54.4,50.9,30.11,NNE,13,0.0,1.0,88,0.00,,---,0.00,0.00,VWS V14.01,2013-08-14 05:50:00,
2013-08-14 00:51:00,54.4,50.9,30.11,NNE,13,0.0,1.0,88,0.00,,---,0.00,0.00,VWS V14.01,2013-08-14 05:51:00,
2013-08-14 00:55:00,54.4,51.2,30.11,NNE,13,0.0,0.0,89,0.00,,---,0.00,0.00,VWS V14.01,2013-08-14 05:55:00,
2013-08-14 00:56:00,54.4,51.2,30.11,NNE,13,0.0,0.0,89,0.00,,---,0.00,0.00,VWS V14.01,2013-08-14 05:56:00,
2013-08-14 01:01:00,54.5,51.3,30.11,NNE,13,0.0,0.0,89,0.00,,---,0.00,0.00,VWS V14.01,2013-08-14 06:01:00,
2013-08-14 01:05:00,54.6,51.7,30.11,NNE,13,0.0,0.0,90,0.00,,---,0.00,0.00,VWS V14.01,2013-08-14 06:05:00,
2013-08-14 01:10:00,54.6,51.7,30.11,NNE,13,0.0,0.0,90,0.00,,---,0.00,0.00,VWS V14.01,2013-08-14 06:10:00,
2013-08-14 01:11:00,54.6,51.7,30.11,NNE,13,0.0,0.0,90,0.00,,---,0.00,0.00,VWS V14.01,2013-08-14 06:11:00,
2013-08-14 01:15:00,54.6,51.7,30.11,NNE,13,0.0,0.0,90,0.00,,---,0.00,0.00,VWS V14.01,2013-08-14 06:15:00,
2013-08-14 01:16:00,54.6,51.7,30.11,NNE,13,0.0,0.0,90,0.00,,---,0.00,0.00,VWS V14.01,2013-08-14 06:16:00,
2013-08-14 01:20:00,54.5,51.9,30.11,NNE,13,0.0,0.0,91,0.00,,---,0.00,0.00,VWS V14.01,2013-08-14 06:20:00,
2013-08-14 01:21:00,54.5,51.9,30.11,NNE,13,0.0,0.0,91,0.00,,---,0.00,0.00,VWS V14.01,2013-08-14 06:21:00,
2013-08-14 01:25:00,54.7,52.1,30.11,NNE,13,0.0,0.0,91,0.00,,---,0.00,0.00,VWS V14.01,2013-08-14 06:25:00,
2013-08-14 01:26:00,54.7,52.1,30.11,NNE,13,0.0,0.0,91,0.00,,---,0.00,0.00,VWS V14.01,2013-08-14 06:26:00,
2013-08-14 01:30:00,54.7,52.1,30.11,NNE,13,0.0,0.0,91,0.00,,---,0.00,0.00,VWS V14.01,2013-08-14 06:30:00,
2013-08-14 01:31:00,54.7,52.1,30.11,NNE,13,0.0,0.0,91,0.00,,---,0.00,0.00,VWS V14.01,2013-08-14 06:31:00,
2013-08-14 01:35:00,54.4,51.8,30.11,NNE,13,0.0,0.0,91,0.00,,---,0.00,0.00,VWS V14.01,2013-08-14 06:35:00,
2013-08-14 01:36:00,54.4,51.8,30.11,NNE,13,0.0,0.0,91,0.00,,---,0.00,0.00,VWS V14.01,2013-08-14 06:36:00,
2013-08-14 01:40:00,54.1,51.5,30.11,NNE,13,0.0,0.0,91,0.00,,---,0.00,0.00,VWS V14.01,2013-08-14 06:40:00,
2013-08-14 01:41:00,54.1,51.5,30.11,NNE,13,0.0,0.0,91,0.00,,---,0.00,0.00,VWS V14.01,2013-08-14 06:41:00,
2013-08-14 01:45:00,53.8,51.2,30.11,NNE,13,0.0,0.0,91,0.00,,---,0.00,0.00,VWS V14.01,2013-08-14 06:45:00,
2013-08-14 01:46:00,53.8,51.2,30.11,NNE,13,0.0,0.0,91,0.00,,---,0.00,0.00,VWS V14.01,2013-08-14 06:46:00,
2013-08-14 01:50:00,53.6,51.0,30.11,NNE,13,0.0,0.0,91,0.00,,---,0.00,0.00,VWS V14.01,2013-08-14 06:50:00,
2013-08-14 01:51:00,53.6,51.0,30.11,NNE,13,0.0,0.0,91,0.00,,---,0.00,0.00,VWS V14.01,2013-08-14 06:51:00,
2013-08-14 01:55:00,53.5,51.2,30.11,NNE,13,0.0,0.0,92,0.00,,---,0.00,0.00,VWS V14.01,2013-08-14 06:55:00,
2013-08-14 01:56:00,53.5,51.2,30.11,NNE,13,0.0,0.0,92,0.00,,---,0.00,0.00,VWS V14.01,2013-08-14 06:56:00,
2013-08-14 02:00:00,53.4,51.1,30.12,NNE,13,0.0,0.0,92,0.00,,---,0.00,0.00,VWS V14.01,2013-08-14 07:00:00,
2013-08-14 02:01:00,53.4,51.1,30.12,NNE,13,0.0,0.0,92,0.00,,---,0.00,0.00,VWS V14.01,2013-08-14 07:01:00,
2013-08-14 02:05:00,53.2,50.9,30.11,NNE,13,0.0,0.0,92,0.00,,---,0.00,0.00,VWS V14.01,2013-08-14 07:05:00,
2013-08-14 02:10:00,53.2,50.9,30.12,NNE,13,0.0,0.0,92,0.00,,---,0.00,0.00,VWS V14.01,2013-08-14 07:10:00,
2013-08-14 02:11:00,53.2,50.9,30.12,NNE,13,0.0,0.0,92,0.00,,---,0.00,0.00,VWS V14.01,2013-08-14 07:11:00,
2013-08-14 02:15:00,53.2,50.9,30.12,NNE,13,0.0,0.0,92,0.00,,---,0.00,0.00,VWS V14.01,2013-08-14 07:15:00,
2013-08-14 02:16:00,53.2,50.9,30.12,NNE,13,0.0,0.0,92,0.00,,---,0.00,0.00,VWS V14.01,2013-08-14 07:16:00,
2013-08-14 02:20:00,53.2,50.9,30.11,NNE,13,0.0,0.0,92,0.00,,---,0.00,0.00,VWS V14.01,2013-08-14 07:20:00,
2013-08-14 02:21:00,53.2,50.9,30.11,NNE,13,0.0,0.0,92,0.00,,---,0.00,0.00,VWS V14.01,2013-08-14 07:21:00,
2013-08-14 02:25:00,53.2,51.2,30.11,NNE,13,0.0,0.0,93,0.00,,---,0.00,0.00,VWS V14.01,2013-08-14 07:25:00,
2013-08-14 02:26:00,53.2,51.2,30.11,NNE,13,0.0,0.0,93,0.00,,---,0.00,0.00,VWS V14.01,2013-08-14 07:26:00,
2013-08-14 02:30:00,53.2,51.2,30.11,NNE,13,0.0,0.0,93,0.00,,---,0.00,0.00,VWS V14.01,2013-08-14 07:30:00,
2013-08-14 02:31:00,53.2,51.2,30.11,NNE,13,0.0,0.0,93,0.00,,---,0.00,0.00,VWS V14.01,2013-08-14 07:31:00,
2013-08-14 02:35:00,53.2,51.2,30.11,NNE,13,0.0,0.0,93,0.00,,---,0.00,0.00,VWS V14.01,2013-08-14 07:35:00,
2013-08-14 02:36:00,53.2,51.2,30.11,NNE,13,0.0,0.0,93,0.00,,---,0.00,0.00,VWS V14.01,2013-08-14 07:36:00,
2013-08-14 02:40:00,53.0,51.0,30.12,NNE,13,0.0,0.0,93,0.00,,---,0.00,0.00,VWS V14.01,2013-08-14 07:40:00,
2013-08-14 02:41:00,53.0,51.0,30.12,NNE,13,0.0,0.0,93,0.00,,---,0.00,0.00,VWS V14.01,2013-08-14 07:41:00,
2013-08-14 02:45:00,53.0,51.0,30.12,NNE,13,0.0,0.0,93,0.00,,---,0.00,0.00,VWS V14.01,2013-08-14 07:45:00,
2013-08-14 02:46:00,53.0,51.0,30.12,NNE,13,0.0,0.0,93,0.00,,---,0.00,0.00,VWS V14.01,2013-08-14 07:46:00,
2013-08-14 02:50:00,53.1,51.1,30.12,NNE,13,0.0,0.0,93,0.00,,---,0.00,0.00,VWS V14.01,2013-08-14 07:50:00,
2013-08-14 02:51:00,53.1,51.1,30.12,NNE,13,0.0,0.0,93,0.00,,---,0.00,0.00,VWS V14.01,2013-08-14 07:51:00,
2013-08-14 02:55:00,52.9,50.9,30.12,NNE,13,0.0,0.0,93,0.00,,---,0.00,0.00,VWS V14.01,2013-08-14 07:55:00,
2013-08-14 02:56:00,52.9,50.9,30.12,NNE,13,0.0,0.0,93,0.00,,---,0.00,0.00,VWS V14.01,2013-08-14 07:56:00,
2013-08-14 03:00:00,52.8,50.8,30.12,NNE,13,0.0,0.0,93,0.00,,---,0.00,0.00,VWS V14.01,2013-08-14 08:00:00,
2013-08-14 03:01:00,52.8,50.8,30.12,NNE,13,0.0,0.0,93,0.00,,---,0.00,0.00,VWS V14.01,2013-08-14 08:01:00,
2013-08-14 03:05:00,52.9,50.9,30.12,NNE,13,0.0,0.0,93,0.00,,---,0.00,0.00,VWS V14.01,2013-08-14 08:05:00,
2013-08-14 03:10:00,53.0,51.0,30.12,NNE,13,0.0,0.0,93,0.00,,---,0.00,0.00,VWS V14.01,2013-08-14 08:10:00,
2013-08-14 03:11:00,53.0,51.0,30.12,NNE,13,0.0,0.0,93,0.00,,---,0.00,0.00,VWS V14.01,2013-08-14 08:11:00,
2013-08-14 03:15:00,53.0,51.0,30.12,NNE,13,0.0,0.0,93,0.00,,---,0.00,0.00,VWS V14.01,2013-08-14 08:15:00,
2013-08-14 03:16:00,53.0,51.0,30.12,NNE,13,0.0,0.0,93,0.00,,---,0.00,0.00,VWS V14.01,2013-08-14 08:16:00,
2013-08-14 03:21:00,53.1,51.1,30.12,NNE,13,0.0,2.0,93,0.00,,---,0.00,0.00,VWS V14.01,2013-08-14 08:21:00,
2013-08-14 03:27:00,53.2,51.2,30.12,NNE,13,0.0,0.0,93,0.00,,---,0.00,0.00,VWS V14.01,2013-08-14 08:27:00,
2013-08-14 03:36:00,53.3,51.3,30.12,NNE,13,0.0,0.0,93,0.00,,---,0.00,0.00,VWS V14.01,2013-08-14 08:36:00,
2013-08-14 03:41:00,53.3,51.3,30.13,NNE,13,0.0,0.0,93,0.00,,---,0.00,0.00,VWS V14.01,2013-08-14 08:41:00,
2013-08-14 03:46:00,53.3,51.3,30.13,NNE,13,0.0,0.0,93,0.00,,---,0.00,0.00,VWS V14.01,2013-08-14 08:46:00,
2013-08-14 03:51:00,53.3,51.3,30.13,NNE,13,0.0,0.0,93,0.00,,---,0.00,0.00,VWS V14.01,2013-08-14 08:51:00,
2013-08-14 03:56:00,53.4,51.4,30.12,NNE,13,0.0,0.0,93,0.00,,---,0.00,0.00,VWS V14.01,2013-08-14 08:56:00,
2013-08-14 04:01:00,53.5,51.5,30.12,NNE,13,0.0,0.0,93,0.00,,---,0.00,0.00,VWS V14.01,2013-08-14 09:01:00,
2013-08-14 04:06:00,53.4,51.4,30.12,NNE,13,0.0,0.0,93,0.00,,---,0.00,0.00,VWS V14.01,2013-08-14 09:06:00,
2013-08-14 04:11:00,53.2,51.2,30.12,NNE,13,0.0,0.0,93,0.00,,---,0.00,0.00,VWS V14.01,2013-08-14 09:11:00,
2013-08-14 04:16:00,53.0,51.0,30.12,NNE,13,0.0,0.0,93,0.00,,---,0.00,0.00,VWS V14.01,2013-08-14 09:16:00,
2013-08-14 04:21:00,52.9,50.9,30.12,NNE,13,0.0,0.0,93,0.00,,---,0.00,0.00,VWS V14.01,2013-08-14 09:21:00,
2013-08-14 04:26:00,52.7,50.7,30.13,NNE,13,0.0,0.0,93,0.00,,---,0.00,0.00,VWS V14.01,2013-08-14 09:26:00,
2013-08-14 04:31:00,52.5,50.5,30.13,NNE,13,0.0,0.0,93,0.00,,---,0.00,0.00,VWS V14.01,2013-08-14 09:31:00,
2013-08-14 04:41:00,51.9,49.9,30.12,NNE,13,0.0,0.0,93,0.00,,---,0.00,0.00,VWS V14.01,2013-08-14 09:41:00,
2013-08-14 04:46:00,51.9,49.9,30.12,NNE,13,0.0,0.0,93,0.00,,---,0.00,0.00,VWS V14.01,2013-08-14 09:46:00,
2013-08-14 04:51:00,52.0,50.0,30.12,NNE,13,0.0,0.0,93,0.00,,---,0.00,0.00,VWS V14.01,2013-08-14 09:51:00,
2013-08-14 04:56:00,51.8,49.8,30.13,NNE,13,0.0,0.0,93,0.00,,---,0.00,0.00,VWS V14.01,2013-08-14 09:56:00,
2013-08-14 05:01:00,51.7,49.8,30.12,NNE,13,0.0,0.0,93,0.00,,---,0.00,0.00,VWS V14.01,2013-08-14 10:01:00,
2013-08-14 05:06:00,51.5,49.5,30.12,NNE,13,0.0,0.0,93,0.00,,---,0.00,0.00,VWS V14.01,2013-08-14 10:06:00,
2013-08-14 05:11:00,51.4,49.5,30.12,NNE,13,0.0,0.0,93,0.00,,---,0.00,0.00,VWS V14.01,2013-08-14 10:11:00,
2013-08-14 05:16:00,51.1,49.2,30.12,NNE,13,0.0,0.0,93,0.00,,---,0.00,0.00,VWS V14.01,2013-08-14 10:16:00,
2013-08-14 05:21:00,50.9,49.0,30.12,NNE,13,0.0,0.0,93,0.00,,---,0.00,0.00,VWS V14.01,2013-08-14 10:21:00,
2013-08-14 05:26:00,50.7,48.8,30.13,NNE,13,0.0,0.0,93,0.00,,---,0.00,0.00,VWS V14.01,2013-08-14 10:26:00,
2013-08-14 05:31:00,50.7,49.0,30.13,NNE,13,0.0,0.0,94,0.00,,---,0.00,0.00,VWS V14.01,2013-08-14 10:31:00,
2013-08-14 05:36:00,50.7,49.0,30.12,NNE,13,0.0,0.0,94,0.00,,---,0.00,0.00,VWS V14.01,2013-08-14 10:36:00,
2013-08-14 05:41:00,50.7,49.0,30.13,NNE,13,0.0,0.0,94,0.00,,---,0.00,0.00,VWS V14.01,2013-08-14 10:41:00,
2013-08-14 05:46:00,50.7,49.0,30.13,NNE,13,0.0,0.0,94,0.00,,---,0.00,0.00,VWS V14.01,2013-08-14 10:46:00,
2013-08-14 05:51:00,50.6,48.9,30.13,NNE,13,0.0,0.0,94,0.00,,---,0.00,0.00,VWS V14.01,2013-08-14 10:51:00,
2013-08-14 05:56:00,50.6,48.9,30.12,NNE,13,0.0,0.0,94,0.00,,---,0.00,0.00,VWS V14.01,2013-08-14 10:56:00,
2013-08-14 06:01:00,50.6,48.9,30.12,NNE,13,0.0,0.0,94,0.00,,---,0.00,0.00,VWS V14.01,2013-08-14 11:01:00,
2013-08-14 06:06:00,50.6,48.9,30.12,NNE,13,0.0,0.0,94,0.00,,---,0.00,0.00,VWS V14.01,2013-08-14 11:06:00,
2013-08-14 06:11:00,50.6,48.9,30.12,NNE,13,0.0,0.0,94,0.00,,---,0.00,0.00,VWS V14.01,2013-08-14 11:11:00,
2013-08-14 06:16:00,50.6,48.9,30.13,NNE,13,0.0,0.0,94,0.00,,---,0.00,5.00,VWS V14.01,2013-08-14 11:16:00,
2013-08-14 06:21:00,50.5,48.8,30.13,NNE,13,0.0,0.0,94,0.00,,---,0.00,9.00,VWS V14.01,2013-08-14 11:21:00,
2013-08-14 06:26:00,50.6,48.9,30.13,NNE,13,0.0,0.0,94,0.00,,---,0.00,11.00,VWS V14.01,2013-08-14 11:26:00,
2013-08-14 06:31:00,50.6,49.2,30.13,NNE,13,0.0,0.0,95,0.00,,---,0.00,16.00,VWS V14.01,2013-08-14 11:31:00,
2013-08-14 06:36:00,50.8,49.4,30.13,NNE,13,0.0,0.0,95,0.00,,---,0.00,19.00,VWS V14.01,2013-08-14 11:36:00,
2013-08-14 06:41:00,50.8,49.4,30.13,NNE,13,0.0,0.0,95,0.00,,---,0.00,23.00,VWS V14.01,2013-08-14 11:41:00,
2013-08-14 06:46:00,50.8,49.4,30.13,NNE,13,0.0,0.0,95,0.00,,---,0.00,23.00,VWS V14.01,2013-08-14 11:46:00,
2013-08-14 06:51:00,50.8,49.4,30.13,NNE,13,0.0,0.0,95,0.00,,---,0.00,23.00,VWS V14.01,2013-08-14 11:51:00,
2013-08-14 06:56:00,50.9,49.5,30.13,NNE,13,0.0,0.0,95,0.00,,---,0.00,23.00,VWS V14.01,2013-08-14 11:56:00,
2013-08-14 07:01:00,51.0,49.6,30.13,NNE,13,0.0,0.0,95,0.00,,---,0.00,28.00,VWS V14.01,2013-08-14 12:01:00,
2013-08-14 07:06:00,51.1,49.7,30.13,NNE,13,0.0,0.0,95,0.00,,---,0.00,37.00,VWS V14.01,2013-08-14 12:06:00,
2013-08-14 07:11:00,51.4,50.0,30.13,NNE,13,0.0,0.0,95,0.00,,---,0.00,91.00,VWS V14.01,2013-08-14 12:11:00,
2013-08-14 07:16:00,52.1,50.7,30.13,NNE,13,0.0,0.0,95,0.00,,---,0.00,123.00,VWS V14.01,2013-08-14 12:16:00,
2013-08-14 07:21:00,52.9,51.8,30.13,NNE,13,0.0,0.0,96,0.00,,---,0.00,137.00,VWS V14.01,2013-08-14 12:21:00,
2013-08-14 07:26:00,53.6,52.5,30.13,NNE,13,0.0,0.0,96,0.00,,---,0.00,95.00,VWS V14.01,2013-08-14 12:26:00,
2013-08-14 07:31:00,54.1,53.0,30.13,NNE,13,0.0,0.0,96,0.00,,---,0.00,178.00,VWS V14.01,2013-08-14 12:31:00,
2013-08-14 07:36:00,54.7,53.6,30.13,NNE,13,0.0,0.0,96,0.00,,---,0.00,192.00,VWS V14.01,2013-08-14 12:36:00,
2013-08-14 07:41:00,55.5,54.4,30.13,NNE,13,0.0,0.0,96,0.00,,---,0.00,190.00,VWS V14.01,2013-08-14 12:41:00,
2013-08-14 07:46:00,56.2,54.8,30.13,NNE,13,0.0,0.0,95,0.00,,---,0.00,202.00,VWS V14.01,2013-08-14 12:46:00,
2013-08-14 07:51:00,57.2,55.8,30.13,NNE,13,0.0,0.0,95,0.00,,---,0.00,209.00,VWS V14.01,2013-08-14 12:51:00,
2013-08-14 07:56:00,58.0,56.6,30.12,NNE,13,0.0,0.0,95,0.00,,---,0.00,223.00,VWS V14.01,2013-08-14 12:56:00,
2013-08-14 08:01:00,58.6,56.9,30.12,NNE,13,0.0,0.0,94,0.00,,---,0.00,237.00,VWS V14.01,2013-08-14 13:01:00,
2013-08-14 08:06:00,59.0,57.0,30.13,NNE,13,0.0,0.0,93,0.00,,---,0.00,253.00,VWS V14.01,2013-08-14 13:06:00,
2013-08-14 08:11:00,59.5,56.6,30.13,NNE,13,0.0,0.0,90,0.00,,---,0.00,271.00,VWS V14.01,2013-08-14 13:11:00,
2013-08-14 08:16:00,60.2,57.0,30.13,NNE,13,0.0,0.0,89,0.00,,---,0.00,290.00,VWS V14.01,2013-08-14 13:16:00,
2013-08-14 08:21:00,61.4,57.2,30.13,NNE,13,0.0,0.0,86,0.00,,---,0.00,308.00,VWS V14.01,2013-08-14 13:21:00,
2013-08-14 08:26:00,62.3,57.1,30.13,NNE,13,0.0,0.0,83,0.00,,---,0.00,323.00,VWS V14.01,2013-08-14 13:26:00,
2013-08-14 08:31:00,63.0,56.7,30.13,NNE,13,0.0,0.0,80,0.00,,---,0.00,350.00,VWS V14.01,2013-08-14 13:31:00,
2013-08-14 08:36:00,63.6,57.0,30.13,NNE,13,0.0,0.0,79,0.00,,---,0.00,364.00,VWS V14.01,2013-08-14 13:36:00,
2013-08-14 08:41:00,64.5,57.5,30.13,NNE,13,0.0,0.0,78,0.00,,---,0.00,378.00,VWS V14.01,2013-08-14 13:41:00,
2013-08-14 08:46:00,65.2,57.5,30.13,NNE,13,0.0,0.0,76,0.00,,---,0.00,399.00,VWS V14.01,2013-08-14 13:46:00,
2013-08-14 08:51:00,65.4,56.5,30.13,NNE,13,0.0,3.0,73,0.00,,---,0.00,410.00,VWS V14.01,2013-08-14 13:51:00,
2013-08-14 08:56:00,65.4,56.2,30.13,NNE,13,0.0,0.0,72,0.00,,---,0.00,425.00,VWS V14.01,2013-08-14 13:56:00,
2013-08-14 09:01:00,66.0,56.7,30.13,NNE,13,0.0,0.0,72,0.00,,---,0.00,441.00,VWS V14.01,2013-08-14 14:01:00,
2013-08-14 09:06:00,66.7,57.0,30.13,NNE,13,0.0,0.0,71,0.00,,---,0.00,462.00,VWS V14.01,2013-08-14 14:06:00,
2013-08-14 09:11:00,67.1,56.2,30.13,NNE,13,0.0,0.0,68,0.00,,---,0.00,475.00,VWS V14.01,2013-08-14 14:11:00,
2013-08-14 09:16:00,67.8,56.9,30.13,NNE,13,0.0,0.0,68,0.00,,---,0.00,494.00,VWS V14.01,2013-08-14 14:16:00,
2013-08-14 09:21:00,68.1,56.7,30.13,NNE,13,0.0,1.0,67,0.00,,---,0.00,510.00,VWS V14.01,2013-08-14 14:21:00,
2013-08-14 09:26:00,68.3,55.7,30.13,NNE,13,0.0,1.0,64,0.00,,---,0.00,520.00,VWS V14.01,2013-08-14 14:26:00,
2013-08-14 09:31:00,68.5,55.9,30.13,NNE,13,0.0,1.0,64,0.00,,---,0.00,529.00,VWS V14.01,2013-08-14 14:31:00,
2013-08-14 09:36:00,68.7,56.5,30.13,NNE,13,2.0,2.0,65,0.00,,---,0.00,545.00,VWS V14.01,2013-08-14 14:36:00,
2013-08-14 09:41:00,69.3,56.6,30.13,NNE,13,0.0,2.0,64,0.00,,---,0.00,568.00,VWS V14.01,2013-08-14 14:41:00,
2013-08-14 09:46:00,69.6,56.0,30.13,West,264,0.0,4.0,62,0.00,,---,0.00,589.00,VWS V14.01,2013-08-14 14:46:00,
2013-08-14 09:51:00,68.9,55.8,30.13,WSW,237,0.0,5.0,63,0.00,,---,0.00,605.00,VWS V14.01,2013-08-14 14:51:00,
2013-08-14 09:56:00,69.4,55.8,30.13,SW,232,0.0,3.0,62,0.00,,---,0.00,624.00,VWS V14.01,2013-08-14 14:56:00,
2013-08-14 10:01:00,69.8,53.9,30.13,WSW,255,0.0,4.0,57,0.00,,---,0.00,649.00,VWS V14.01,2013-08-14 15:01:00,
2013-08-14 10:06:00,70.3,54.4,30.13,SW,220,4.0,4.0,57,0.00,,---,0.00,708.00,VWS V14.01,2013-08-14 15:06:00,
2013-08-14 10:11:00,69.8,53.9,30.13,SW,234,4.0,5.0,57,0.00,,---,0.00,459.00,VWS V14.01,2013-08-14 15:11:00,
2013-08-14 10:16:00,70.0,52.6,30.13,WSW,246,0.0,4.0,54,0.00,,---,0.00,742.00,VWS V14.01,2013-08-14 15:16:00,
2013-08-14 10:21:00,70.4,52.5,30.13,WSW,247,2.0,2.0,53,0.00,,---,0.00,737.00,VWS V14.01,2013-08-14 15:21:00,
2013-08-14 10:26:00,70.8,52.3,30.13,West,260,0.0,6.0,52,0.00,,---,0.00,371.00,VWS V14.01,2013-08-14 15:26:00,
2013-08-14 10:31:00,71.3,52.8,30.14,West,266,0.0,5.0,52,0.00,,---,0.00,722.00,VWS V14.01,2013-08-14 15:31:00,
2013-08-14 10:36:00,71.7,52.6,30.13,West,275,0.0,5.0,51,0.00,,---,0.00,735.00,VWS V14.01,2013-08-14 15:36:00,
2013-08-14 10:41:00,72.3,52.6,30.13,West,275,0.0,3.0,50,0.00,,---,0.00,742.00,VWS V14.01,2013-08-14 15:41:00,
2013-08-14 10:46:00,72.3,52.6,30.13,SW,219,0.0,5.0,50,0.00,,---,0.00,758.00,VWS V14.01,2013-08-14 15:46:00,
2013-08-14 10:51:00,71.6,52.0,30.13,SW,215,0.0,7.0,50,0.00,,---,0.00,772.00,VWS V14.01,2013-08-14 15:51:00,
2013-08-14 10:56:00,71.5,52.4,30.13,SW,221,0.0,5.0,51,0.00,,---,0.00,775.00,VWS V14.01,2013-08-14 15:56:00,
2013-08-14 11:01:00,72.0,53.4,30.13,SW,216,0.0,3.0,52,0.00,,---,0.00,779.00,VWS V14.01,2013-08-14 16:01:00,
2013-08-14 11:06:00,73.5,53.7,30.13,North,360,5.0,5.0,50,0.00,,---,0.00,782.00,VWS V14.01,2013-08-14 16:06:00,
2013-08-14 11:11:00,74.2,53.3,30.13,NW,306,0.0,5.0,48,0.00,,---,0.00,793.00,VWS V14.01,2013-08-14 16:11:00,
2013-08-14 11:16:00,74.2,52.1,30.13,North,360,0.0,4.0,46,0.00,,---,0.00,796.00,VWS V14.01,2013-08-14 16:16:00,
2013-08-14 11:21:00,74.1,52.0,30.13,WNW,289,1.0,6.0,46,0.00,,---,0.00,803.00,VWS V14.01,2013-08-14 16:21:00,
2013-08-14 11:26:00,74.1,52.6,30.13,NW,306,0.0,6.0,47,0.00,,---,0.00,828.00,VWS V14.01,2013-08-14 16:26:00,
2013-08-14 11:31:00,74.6,53.1,30.12,NNW,328,5.0,5.0,47,0.00,,---,0.00,860.00,VWS V14.01,2013-08-14 16:31:00,
2013-08-14 11:41:00,74.0,52.5,30.13,NW,311,3.0,6.0,47,0.00,,---,0.00,225.00,VWS V14.01,2013-08-14 16:41:00,
2013-08-14 11:46:00,73.3,51.9,30.13,WNW,294,0.0,6.0,47,0.00,,---,0.00,211.00,VWS V14.01,2013-08-14 16:46:00,
2013-08-14 11:56:00,74.3,53.9,30.12,West,276,4.0,8.0,49,0.00,,---,0.00,954.00,VWS V14.01,2013-08-14 16:56:00,
2013-08-14 12:01:00,75.3,54.3,30.12,West,268,2.0,6.0,48,0.00,,---,0.00,1007.00,VWS V14.01,2013-08-14 17:01:00,
2013-08-14 12:11:00,76.7,53.8,30.12,NNW,333,3.0,4.0,45,0.00,,---,0.00,918.00,VWS V14.01,2013-08-14 17:11:00,
2013-08-14 12:16:00,76.0,54.9,30.12,WNW,300,7.0,8.0,48,0.00,,---,0.00,930.00,VWS V14.01,2013-08-14 17:16:00,
2013-08-14 12:21:00,75.3,54.3,30.12,SW,221,8.0,8.0,48,0.00,,---,0.00,947.00,VWS V14.01,2013-08-14 17:21:00,
2013-08-14 12:26:00,74.5,54.7,30.11,West,275,2.0,11.0,50,0.00,,---,0.00,155.00,VWS V14.01,2013-08-14 17:26:00,
2013-08-14 12:31:00,74.0,54.7,30.12,NNW,331,5.0,6.0,51,0.00,,---,0.00,925.00,VWS V14.01,2013-08-14 17:31:00,
2013-08-14 12:36:00,74.2,54.9,30.11,NNW,331,5.0,5.0,51,0.00,,---,0.00,972.00,VWS V14.01,2013-08-14 17:36:00,
2013-08-14 12:41:00,74.6,54.2,30.11,West,265,5.0,12.0,49,0.00,,---,0.00,900.00,VWS V14.01,2013-08-14 17:41:00,
2013-08-14 12:46:00,74.5,55.7,30.11,North,9,1.0,5.0,52,0.00,,---,0.00,923.00,VWS V14.01,2013-08-14 17:46:00,
2013-08-14 12:51:00,75.2,53.0,30.11,WNW,287,2.0,8.0,46,0.00,,---,0.00,928.00,VWS V14.01,2013-08-14 17:51:00,
2013-08-14 12:56:00,74.8,53.2,30.10,West,264,5.0,6.0,47,0.00,,---,0.00,146.00,VWS V14.01,2013-08-14 17:56:00,
2013-08-14 13:01:00,74.5,53.0,30.10,NNW,346,6.0,10.0,47,0.00,,---,0.00,991.00,VWS V14.01,2013-08-14 18:01:00,
2013-08-14 13:11:00,75.0,54.0,30.10,WNW,291,9.0,9.0,48,0.00,,---,0.00,160.00,VWS V14.01,2013-08-14 18:11:00,
2013-08-14 13:21:00,74.2,53.3,30.10,NW,324,2.0,6.0,48,0.00,,---,0.00,970.00,VWS V14.01,2013-08-14 18:21:00,
2013-08-14 13:31:00,75.0,52.8,30.09,WSW,249,4.0,7.0,46,0.00,,---,0.00,179.00,VWS V14.01,2013-08-14 18:31:00,
2013-08-14 13:36:00,74.8,53.8,30.09,NW,307,0.0,5.0,48,0.00,,---,0.00,229.00,VWS V14.01,2013-08-14 18:36:00,
2013-08-14 13:41:00,74.6,53.1,30.09,WNW,293,3.0,4.0,47,0.00,,---,0.00,930.00,VWS V14.01,2013-08-14 18:41:00,
2013-08-14 13:46:00,74.6,53.6,30.09,WNW,295,9.0,10.0,48,0.00,,---,0.00,151.00,VWS V14.01,2013-08-14 18:46:00,
2013-08-14 13:56:00,74.0,54.7,30.09,SW,222,4.0,5.0,51,0.00,,---,0.00,947.00,VWS V14.01,2013-08-14 18:56:00,
2013-08-14 14:06:00,75.8,53.6,30.08,WNW,288,4.0,10.0,46,0.00,,---,0.00,889.00,VWS V14.01,2013-08-14 19:06:00,
2013-08-14 14:21:00,76.5,54.2,30.07,NNW,345,0.0,7.0,46,0.00,,---,0.00,281.00,VWS V14.01,2013-08-14 19:21:00,
2013-08-14 14:31:00,75.0,54.6,30.08,WSW,252,4.0,11.0,49,0.00,,---,0.00,285.00,VWS V14.01,2013-08-14 19:31:00,
2013-08-14 14:36:00,74.7,54.8,30.07,WSW,239,2.0,11.0,50,0.00,,---,0.00,828.00,VWS V14.01,2013-08-14 19:36:00,
2013-08-14 14:46:00,74.5,54.1,30.07,WSW,245,0.0,11.0,49,0.00,,---,0.00,807.00,VWS V14.01,2013-08-14 19:46:00,
2013-08-14 14:51:00,74.7,54.8,30.07,SW,217,12.0,12.0,50,0.00,,---,0.00,874.00,VWS V14.01,2013-08-14 19:51:00,
2013-08-14 15:01:00,75.2,53.6,30.07,SW,224,3.0,16.0,47,0.00,,---,0.00,446.00,VWS V14.01,2013-08-14 20:01:00,
2013-08-14 15:11:00,75.4,53.2,30.07,West,270,1.0,11.0,46,0.00,,---,0.00,301.00,VWS V14.01,2013-08-14 20:11:00,
2013-08-14 15:16:00,75.1,54.1,30.07,West,276,3.0,13.0,48,0.00,,---,0.00,250.00,VWS V14.01,2013-08-14 20:16:00,
2013-08-14 15:31:00,74.8,53.8,30.06,West,264,1.0,10.0,48,0.00,,---,0.00,708.00,VWS V14.01,2013-08-14 20:31:00,
2013-08-14 15:36:00,75.0,54.0,30.06,SW,219,9.0,13.0,48,0.00,,---,0.00,543.00,VWS V14.01,2013-08-14 20:36:00,
2013-08-14 15:46:00,74.3,53.9,30.06,SW,223,4.0,14.0,49,0.00,,---,0.00,533.00,VWS V14.01,2013-08-14 20:46:00,
2013-08-14 15:51:00,74.7,53.7,30.06,SW,220,6.0,9.0,48,0.00,,---,0.00,455.00,VWS V14.01,2013-08-14 20:51:00,
2013-08-14 15:56:00,75.1,53.5,30.06,WSW,251,7.0,15.0,47,0.00,,---,0.00,376.00,VWS V14.01,2013-08-14 20:56:00,
2013-08-14 16:06:00,75.8,53.6,30.06,SSW,200,4.0,9.0,46,0.00,,---,0.00,647.00,VWS V14.01,2013-08-14 21:06:00,
2013-08-14 16:11:00,75.8,53.6,30.06,West,267,4.0,13.0,46,0.00,,---,0.00,585.00,VWS V14.01,2013-08-14 21:11:00,
2013-08-14 16:16:00,76.2,53.3,30.06,WNW,291,4.0,12.0,45,0.00,,---,0.00,519.00,VWS V14.01,2013-08-14 21:16:00,
2013-08-14 16:21:00,76.2,52.7,30.06,West,267,0.0,10.0,44,0.00,,---,0.00,271.00,VWS V14.01,2013-08-14 21:21:00,
2013-08-14 16:26:00,76.1,52.6,30.06,SSW,207,5.0,9.0,44,0.00,,---,0.00,239.00,VWS V14.01,2013-08-14 21:26:00,
2013-08-14 16:31:00,74.8,52.7,30.06,WSW,242,2.0,11.0,46,0.00,,---,0.00,213.00,VWS V14.01,2013-08-14 21:31:00,
2013-08-14 16:36:00,74.6,53.1,30.06,SW,222,8.0,8.0,47,0.00,,---,0.00,211.00,VWS V14.01,2013-08-14 21:36:00,
2013-08-14 16:41:00,74.6,53.6,30.06,SSW,193,0.0,10.0,48,0.00,,---,0.00,195.00,VWS V14.01,2013-08-14 21:41:00,
2013-08-14 16:46:00,74.5,53.0,30.06,West,261,3.0,11.0,47,0.00,,---,0.00,195.00,VWS V14.01,2013-08-14 21:46:00,
2013-08-14 16:51:00,74.5,53.0,30.06,West,275,3.0,10.0,47,0.00,,---,0.00,211.00,VWS V14.01,2013-08-14 21:51:00,
2013-08-14 16:56:00,74.6,53.1,30.06,West,264,0.0,7.0,47,0.00,,---,0.00,487.00,VWS V14.01,2013-08-14 21:56:00,
2013-08-14 17:01:00,74.7,53.2,30.06,West,267,2.0,11.0,47,0.00,,---,0.00,236.00,VWS V14.01,2013-08-14 22:01:00,
2013-08-14 17:06:00,75.1,53.5,30.05,West,274,0.0,9.0,47,0.00,,---,0.00,677.00,VWS V14.01,2013-08-14 22:06:00,
2013-08-14 17:11:00,76.2,53.3,30.06,South,187,5.0,11.0,45,0.00,,---,0.00,635.00,VWS V14.01,2013-08-14 22:11:00,
2013-08-14 17:16:00,76.5,53.0,30.05,SW,233,0.0,12.0,44,0.00,,---,0.00,687.00,VWS V14.01,2013-08-14 22:16:00,
2013-08-14 17:21:00,77.5,53.3,30.05,WSW,242,4.0,9.0,43,0.00,,---,0.00,689.00,VWS V14.01,2013-08-14 22:21:00,
2013-08-14 17:26:00,77.4,53.2,30.05,West,273,5.0,10.0,43,0.00,,---,0.00,636.00,VWS V14.01,2013-08-14 22:26:00,
2013-08-14 17:31:00,77.6,53.4,30.05,West,262,10.0,10.0,43,0.00,,---,0.00,241.00,VWS V14.01,2013-08-14 22:31:00,
2013-08-14 17:36:00,77.2,53.6,30.05,WSW,249,0.0,13.0,44,0.00,,---,0.00,413.00,VWS V14.01,2013-08-14 22:36:00,
2013-08-14 17:41:00,76.4,52.9,30.05,SSW,213,2.0,7.0,44,0.00,,---,0.00,464.00,VWS V14.01,2013-08-14 22:41:00,
2013-08-14 17:46:00,76.0,53.2,30.05,SW,224,1.0,9.0,45,0.00,,---,0.00,394.00,VWS V14.01,2013-08-14 22:46:00,
2013-08-14 17:56:00,77.1,52.3,30.05,WSW,256,3.0,11.0,42,0.00,,---,0.00,373.00,VWS V14.01,2013-08-14 22:56:00,
2013-08-14 18:01:00,76.8,52.6,30.04,SW,236,0.0,8.0,43,0.00,,---,0.00,262.00,VWS V14.01,2013-08-14 23:01:00,
2013-08-14 18:11:00,75.8,51.7,30.04,SSW,209,5.0,12.0,43,0.00,,---,0.00,274.00,VWS V14.01,2013-08-14 23:11:00,
2013-08-14 18:16:00,75.5,52.7,30.04,West,281,4.0,6.0,45,0.00,,---,0.00,304.00,VWS V14.01,2013-08-14 23:16:00,
2013-08-14 18:21:00,75.9,53.1,30.04,West,267,5.0,9.0,45,0.00,,---,0.00,271.00,VWS V14.01,2013-08-14 23:21:00,
2013-08-14 18:26:00,75.8,52.4,30.04,WNW,282,2.0,12.0,44,0.00,,---,0.00,294.00,VWS V14.01,2013-08-14 23:26:00,
2013-08-14 18:31:00,76.1,52.6,30.04,SSW,200,4.0,7.0,44,0.00,,---,0.00,288.00,VWS V14.01,2013-08-14 23:31:00,
2013-08-14 18:36:00,76.4,52.3,30.04,WSW,242,0.0,8.0,43,0.00,,---,0.00,267.00,VWS V14.01,2013-08-14 23:36:00,
2013-08-14 18:41:00,76.2,52.1,30.04,WNW,283,7.0,10.0,43,0.00,,---,0.00,287.00,VWS V14.01,2013-08-14 23:41:00,
2013-08-14 18:46:00,76.2,52.1,30.04,SW,225,1.0,9.0,43,0.00,,---,0.00,269.00,VWS V14.01,2013-08-14 23:46:00,
2013-08-14 18:51:00,76.3,52.2,30.04,WNW,284,1.0,9.0,43,0.00,,---,0.00,255.00,VWS V14.01,2013-08-14 23:51:00,
2013-08-14 18:56:00,76.1,52.0,30.04,West,274,0.0,7.0,43,0.00,,---,0.00,232.00,VWS V14.01,2013-08-14 23:56:00,
2013-08-14 19:01:00,76.3,52.2,30.04,West,265,0.0,10.0,43,0.00,,---,0.00,218.00,VWS V14.01,2013-08-15 00:01:00,
2013-08-14 19:06:00,76.4,52.9,30.03,WNW,288,6.0,7.0,44,0.00,,---,0.00,188.00,VWS V14.01,2013-08-15 00:06:00,
2013-08-14 19:11:00,76.0,51.9,30.03,WNW,294,6.0,9.0,43,0.00,,---,0.00,148.00,VWS V14.01,2013-08-15 00:11:00,
2013-08-14 19:16:00,75.4,52.0,30.03,West,270,0.0,9.0,44,0.00,,---,0.00,134.00,VWS V14.01,2013-08-15 00:16:00,
2013-08-14 19:21:00,75.2,51.8,30.03,West,267,1.0,7.0,44,0.00,,---,0.00,121.00,VWS V14.01,2013-08-15 00:21:00,
2013-08-14 19:26:00,75.0,51.6,30.03,WSW,240,3.0,7.0,44,0.00,,---,0.00,102.00,VWS V14.01,2013-08-15 00:26:00,
2013-08-14 19:31:00,74.5,51.2,30.03,WNW,290,0.0,6.0,44,0.00,,---,0.00,86.00,VWS V14.01,2013-08-15 00:31:00,
2013-08-14 19:36:00,74.3,51.0,30.03,West,281,6.0,9.0,44,0.00,,---,0.00,72.00,VWS V14.01,2013-08-15 00:36:00,
2013-08-14 19:41:00,74.1,51.4,30.03,WSW,252,1.0,6.0,45,0.00,,---,0.00,56.00,VWS V14.01,2013-08-15 00:41:00,
2013-08-14 19:46:00,73.8,51.8,30.03,WSW,246,4.0,5.0,46,0.00,,---,0.00,46.00,VWS V14.01,2013-08-15 00:46:00,
2013-08-14 19:51:00,73.5,51.5,30.03,WSW,244,4.0,5.0,46,0.00,,---,0.00,30.00,VWS V14.01,2013-08-15 00:51:00,
2013-08-14 19:56:00,73.1,51.7,30.03,WSW,250,0.0,4.0,47,0.00,,---,0.00,25.00,VWS V14.01,2013-08-15 00:56:00,
2013-08-14 20:01:00,72.8,52.0,30.02,WSW,250,2.0,2.0,48,0.00,,---,0.00,21.00,VWS V14.01,2013-08-15 01:01:00,
2013-08-14 20:06:00,72.4,51.6,30.02,WSW,257,0.0,3.0,48,0.00,,---,0.00,16.00,VWS V14.01,2013-08-15 01:06:00,
2013-08-14 20:11:00,72.1,51.3,30.03,WSW,258,0.0,0.0,48,0.00,,---,0.00,12.00,VWS V14.01,2013-08-15 01:11:00,
2013-08-14 20:16:00,71.7,51.5,30.02,WSW,258,0.0,0.0,49,0.00,,---,0.00,7.00,VWS V14.01,2013-08-15 01:16:00,
2013-08-14 20:26:00,71.0,52.5,30.02,WSW,257,0.0,0.0,52,0.00,,---,0.00,0.00,VWS V14.01,2013-08-15 01:26:00,
2013-08-14 20:31:00,70.5,53.1,30.02,WSW,257,0.0,0.0,54,0.00,,---,0.00,0.00,VWS V14.01,2013-08-15 01:31:00,
2013-08-14 20:36:00,69.7,52.8,30.02,WSW,258,0.0,0.0,55,0.00,,---,0.00,0.00,VWS V14.01,2013-08-15 01:36:00,
2013-08-14 20:41:00,68.6,53.2,30.03,WSW,257,0.0,0.0,58,0.00,,---,0.00,0.00,VWS V14.01,2013-08-15 01:41:00,
2013-08-14 20:46:00,67.7,52.9,30.03,WSW,257,0.0,0.0,59,0.00,,---,0.00,0.00,VWS V14.01,2013-08-15 01:46:00,
2013-08-14 20:51:00,67.1,52.8,30.03,WSW,257,0.0,0.0,60,0.00,,---,0.00,0.00,VWS V14.01,2013-08-15 01:51:00,
2013-08-14 20:56:00,66.6,52.8,30.03,WSW,258,0.0,0.0,61,0.00,,---,0.00,0.00,VWS V14.01,2013-08-15 01:56:00,
2013-08-14 21:01:00,66.1,52.7,30.03,WSW,257,0.0,0.0,62,0.00,,---,0.00,0.00,VWS V14.01,2013-08-15 02:01:00,
2013-08-14 21:06:00,65.7,52.3,30.03,WSW,258,0.0,0.0,62,0.00,,---,0.00,0.00,VWS V14.01,2013-08-15 02:06:00,
2013-08-14 21:11:00,65.3,52.4,30.03,WSW,258,0.0,0.0,63,0.00,,---,0.00,0.00,VWS V14.01,2013-08-15 02:11:00,
2013-08-14 21:21:00,64.5,52.5,30.03,WSW,258,0.0,0.0,65,0.00,,---,0.00,0.00,VWS V14.01,2013-08-15 02:21:00,
2013-08-14 21:26:00,64.1,52.5,30.03,WSW,257,0.0,0.0,66,0.00,,---,0.00,0.00,VWS V14.01,2013-08-15 02:26:00,
2013-08-14 21:31:00,64.1,52.5,30.03,WSW,239,0.0,3.0,66,0.00,,---,0.00,0.00,VWS V14.01,2013-08-15 02:31:00,
2013-08-14 21:36:00,64.3,52.7,30.04,WSW,238,0.0,1.0,66,0.00,,---,0.00,0.00,VWS V14.01,2013-08-15 02:36:00,
2013-08-14 21:41:00,64.5,52.5,30.04,WSW,238,0.0,1.0,65,0.00,,---,0.00,0.00,VWS V14.01,2013-08-15 02:41:00,
2013-08-14 21:46:00,64.6,52.6,30.04,WSW,239,0.0,0.0,65,0.00,,---,0.00,0.00,VWS V14.01,2013-08-15 02:46:00,
2013-08-14 21:51:00,64.5,52.9,30.04,WSW,239,0.0,0.0,66,0.00,,---,0.00,0.00,VWS V14.01,2013-08-15 02:51:00,
2013-08-14 21:56:00,64.2,52.6,30.04,WSW,238,0.0,0.0,66,0.00,,---,0.00,0.00,VWS V14.01,2013-08-15 02:56:00,
2013-08-14 22:01:00,63.8,53.0,30.04,WSW,238,0.0,0.0,68,0.00,,---,0.00,0.00,VWS V14.01,2013-08-15 03:01:00,
2013-08-14 22:06:00,63.4,53.1,30.04,WSW,238,0.0,0.0,69,0.00,,---,0.00,0.00,VWS V14.01,2013-08-15 03:06:00,
2013-08-14 22:11:00,63.0,53.1,30.04,WSW,238,0.0,0.0,70,0.00,,---,0.00,0.00,VWS V14.01,2013-08-15 03:11:00,
2013-08-14 22:16:00,62.6,53.1,30.04,WSW,238,0.0,0.0,71,0.00,,---,0.00,0.00,VWS V14.01,2013-08-15 03:16:00,
2013-08-14 22:21:00,62.3,53.2,30.04,WSW,238,0.0,0.0,72,0.00,,---,0.00,0.00,VWS V14.01,2013-08-15 03:21:00,
2013-08-14 22:26:00,62.0,53.3,30.04,WSW,239,0.0,0.0,73,0.00,,---,0.00,0.00,VWS V14.01,2013-08-15 03:26:00,
2013-08-14 22:31:00,61.7,53.3,30.04,WSW,239,0.0,0.0,74,0.00,,---,0.00,0.00,VWS V14.01,2013-08-15 03:31:00,
2013-08-14 22:36:00,61.3,53.0,30.04,WSW,239,0.0,0.0,74,0.00,,---,0.00,0.00,VWS V14.01,2013-08-15 03:36:00,
2013-08-14 22:41:00,61.0,53.0,30.04,WSW,238,0.0,0.0,75,0.00,,---,0.00,0.00,VWS V14.01,2013-08-15 03:41:00,
2013-08-14 22:46:00,60.7,53.1,30.04,WSW,239,0.0,0.0,76,0.00,,---,0.00,0.00,VWS V14.01,2013-08-15 03:46:00,
2013-08-14 22:51:00,60.4,52.8,30.04,WSW,238,0.0,0.0,76,0.00,,---,0.00,0.00,VWS V14.01,2013-08-15 03:51:00,
2013-08-14 22:56:00,60.2,53.0,30.04,WSW,239,0.0,0.0,77,0.00,,---,0.00,0.00,VWS V14.01,2013-08-15 03:56:00,
2013-08-14 23:01:00,60.0,53.1,30.04,WSW,239,0.0,0.0,78,0.00,,---,0.00,0.00,VWS V14.01,2013-08-15 04:01:00,
2013-08-14 23:06:00,59.8,52.9,30.04,WSW,239,0.0,0.0,78,0.00,,---,0.00,0.00,VWS V14.01,2013-08-15 04:06:00,
2013-08-14 23:11:00,59.6,53.1,30.04,WSW,239,0.0,0.0,79,0.00,,---,0.00,0.00,VWS V14.01,2013-08-15 04:11:00,
2013-08-14 23:16:00,59.4,52.9,30.04,WSW,238,0.0,0.0,79,0.00,,---,0.00,0.00,VWS V14.01,2013-08-15 04:16:00,
2013-08-14 23:21:00,59.0,52.8,30.04,WSW,239,0.0,0.0,80,0.00,,---,0.00,0.00,VWS V14.01,2013-08-15 04:21:00,
2013-08-14 23:26:00,59.0,52.8,30.04,WSW,238,0.0,0.0,80,0.00,,---,0.00,0.00,VWS V14.01,2013-08-15 04:26:00,
2013-08-14 23:31:00,58.9,53.1,30.04,WSW,239,0.0,0.0,81,0.00,,---,0.00,0.00,VWS V14.01,2013-08-15 04:31:00,
2013-08-14 23:36:00,58.5,52.7,30.04,WSW,239,0.0,0.0,81,0.00,,---,0.00,0.00,VWS V14.01,2013-08-15 04:36:00,
2013-08-14 23:41:00,58.3,52.8,30.04,WSW,239,0.0,0.0,82,0.00,,---,0.00,0.00,VWS V14.01,2013-08-15 04:41:00,
2013-08-14 23:46:00,58.1,52.6,30.04,WSW,239,0.0,0.0,82,0.00,,---,0.00,0.00,VWS V14.01,2013-08-15 04:46:00,
2013-08-14 23:51:00,57.8,52.3,30.05,WSW,238,0.0,0.0,82,0.00,,---,0.00,0.00,VWS V14.01,2013-08-15 04:51:00,
2013-08-14 23:56:00,57.6,52.5,30.05,WSW,239,0.0,0.0,83,0.00,,---,0.00,0.00,VWS V14.01,2013-08-15 04:56:00,